Regional Weather Roundup
Issued by NWS Kansas City/Pleasant Hill, MO

Home | Current Version | Previous Version | Graphics & Text | Print | Product List | Glossary Off
Versions: 1 2 3 4 5 6 7 8 9 10 11 12 13 14 15 16 17 18 19 20 21 22 23 24 25 26 27 28

000
ASUS43 KEAX 252210
RWREAX

WEATHER ROUNDUP FOR EASTERN KANSAS AND NORTHWEST MISSOURI
NATIONAL WEATHER SERVICE KANSAS CITY/PLEASANT HILL MO
500 PM CDT SAT MAR 25 2017

KSZ040-057-103>105-MOZ028-029-037-043-252300-
...KANSAS CITY METROPOLITAN AREA...

CITY           SKY/WX    TMP DP  RH WIND       PRES   REMARKS
K.C. INTL      CLOUDY    50  48  93 N10       29.83S
K.C. DOWNTOWN  CLOUDY    55  48  77 N12       29.82R
LEES SUMMIT    CLOUDY    57  51  80 N13       29.81R
OLATHE - IXD   CLOUDY    52  49  89 NW15      29.83R
OLATHE - OJC   CLOUDY    54  50  86 N10       29.82R
LAWRENCE       CLOUDY    49  47  93 NW14      29.86R

$$

MOZ001>008-011>017-020>025-030>033-038>040-044>046-053-054-252300-
...NORTHERN AND CENTRAL MISSOURI...

CITY           SKY/WX    TMP DP  RH WIND       PRES   REMARKS
ST. JOSEPH     CLOUDY    49  46  90 N14       29.86S
WARRENSBURG    LGT RAIN  55  52  88 N8        29.79S
WHITEMAN AFB   LGT RAIN  55  55 100 N12       29.77S
CLINTON        LGT RAIN  54  52  94 SW13      29.81R
SEDALIA        CLOUDY    62  55  77 N6        29.78F
WARSAW         NOT AVBL
CHILLICOTHE      N/A     52  49  89 N6        29.83F
KIRKSVILLE     CLOUDY    50  49  96 NE13      29.82S FOG

$$

MOZ041-047>049-056>058-063>065-088>090-097-252300-
...EASTERN AND SOUTHERN MISSOURI...

CITY           SKY/WX    TMP DP  RH WIND       PRES   REMARKS
ST. LOUIS INTL PTSUNNY   66  56  70 SE15      29.79F
SPIRIT OF STL  PTSUNNY   66  57  72 SE12G20   29.77F
COLUMBIA       LGT RAIN  58  58 100 E9        29.78R
JEFFERSON CITY LGT RAIN  61  56  83 E5        29.77R
ROLLA          LGT RAIN  60  56  86 S8        29.75S
OSAGE BEACH    CLOUDY   N/A N/A N/A W7        29.77S
SPRINGFIELD    CLOUDY    50  47  89 W17       29.85R
BRANSON        CLOUDY    50  46  87 W9G16     29.88R
JOPLIN         CLOUDY    49  45  86 W10       29.89R
WEST PLAINS    LGT RAIN  57  53  86 W10       29.83R

$$

IAZ060-094-KSZ022-034>040-054-083-096-NEZ052-066-093-252300-
...KANSAS...SOUTHEAST NEBRASKA AND IOWA...

CITY           SKY/WX    TMP DP  RH WIND       PRES   REMARKS
TOPEKA         CLOUDY    48  46  93 N10       29.88R
MANHATTAN      CLOUDY    46  42  86 N8        29.91S
EMPORIA        CLOUDY    45  45 100 NW14      29.87S FOG
CHANUTE        CLOUDY    49  45  86 W13       29.88R
WICHITA        CLOUDY    46  41  82 N13       29.91F
OMAHA          CLOUDY    43  38  82 NE15      29.92F
LINCOLN        CLOUDY    41  39  93 N16       29.94F WCI  33
FALLS CITY     LGT RAIN  44  41  89 N9        29.89S FOG
LAMONI         CLOUDY    45  43  93 NE12      29.86S
DES MOINES     LGT RAIN  43  41  93 NE10      29.90F FOG

$$





USA.gov is the U.S. government's official web portal to all federal, state and local government web resources and services.